Location: Unspecified
(48.8656°N, 0.0000°E)
Time: 10:56:25
(UTC+00:00)

Vanguard 1 Rocket - Pass Details

Date: 20 June 2019
Orbit: 651 x 4225 km, 34.3° (Epoch: 20 July)

Event Time Altitude Azimuth Distance (km) Brightness Sun altitude
Rises 15:00:34 0° 197° (SSW) 8,031 12.6 46.7°
Reaches altitude 10° 15:09:45 10° 181° (S) 6,387 12.0 45.3°
Maximum altitude 15:19:18 16° 151° (SSE) 4,970 11.2 43.8°
Drops below altitude 10° 15:26:30 10° 119° (ESE) 4,659 10.8 42.6°
Sets 15:31:18 0° 99° (E) 5,048 10.8 41.9°
